Location: Bílinka
(49.3579°N, 14.3767°E)
Time: 12:59:40
(UTC+00:00)

Cosmos 1190 Rocket - Visible Passes

Search period start: 25 September 2023 00:00
Search period end: 05 October 2023 00:00
Orbit: 756 x 778 km, 74.1° (Epoch: 24 September)

Date Brightness Start Highest point End Pass type
(mag) Time Alt. Az. Time Alt. Az. Time Alt. Az.
25 Sep 6.7 21:07:14 11° NNE 21:07:14 11° NNE 21:07:21 10° NNE visible
25 Sep 6.7 22:47:28 15° N 22:47:28 15° N 22:48:46 10° N visible
26 Sep 6.6 22:10:37 15° N 22:10:37 15° N 22:11:43 10° N visible
27 Sep 6.6 21:33:45 14° NNE 21:33:45 14° NNE 21:34:33 10° NNE visible
27 Sep 6.9 23:13:59 11° NNW 23:13:59 11° NNW 23:14:25 10° NNW visible
28 Sep 6.6 04:24:34 10° N 04:28:05 18° NE 04:31:38 10° E visible
28 Sep 6.6 20:56:52 12° NNE 20:56:52 12° NNE 20:57:16 10° NNE visible
28 Sep 6.8 22:37:06 13° NNW 22:37:06 13° NNW 22:38:10 10° N visible
29 Sep 6.8 03:47:58 10° NNE 03:50:13 13° NE 03:52:30 10° ENE visible
29 Sep 6.7 22:00:11 15° N 22:00:11 15° N 22:01:19 10° N visible
30 Sep 6.6 21:23:14 15° N 21:23:14 15° N 21:24:16 10° N visible
01 Oct 6.3 04:14:02 10° N 04:18:19 25° NE 04:22:36 10° ESE visible
01 Oct 6.5 20:46:14 15° NNE 20:46:14 15° NNE 20:47:04 10° NNE visible
01 Oct 6.9 22:26:26 11° NNW 22:26:26 11° NNW 22:27:07 10° NNW visible
02 Oct 6.7 03:37:06 10° N 03:40:33 17° NE 03:44:00 10° E visible
02 Oct 6.4 20:09:10 13° NNE 20:09:10 13° NNE 20:09:46 10° NNE visible
02 Oct 6.8 21:49:22 14° NNW 21:49:22 14° NNW 21:50:44 10° N visible
03 Oct 6.9 03:00:34 10° NNE 03:02:41 12° NE 03:04:47 10° ENE visible
03 Oct 6.3 19:32:00 12° NNE 19:32:00 12° NNE 19:32:21 10° NNE visible
03 Oct 6.5 21:12:12 17° NNW 21:12:12 17° NNW 21:13:51 10° N visible
04 Oct 5.7 04:03:39 10° N 04:08:26 35° NE 04:13:13 10° ESE visible
04 Oct 6.3 18:54:39 11° NE 18:54:39 11° NE 18:54:46 10° NE visible
04 Oct 6.1 20:34:49 21° N 20:34:49 21° N 20:36:47 10° N visible
